Regional Weather Roundup
Issued by NWS

Home | Current Version | Previous Version | Text Only | Print | Product List | Glossary Off
Versions: 1 2 3 4 5 6 7 8 9 10 11 12 13 14 15 16 17 18 19 20 21 22 23 24 25 26 27 28 29 30 31 32 33 34 35 36 37 38 39 40 41 42 43 44 45 46 47 48 49 50

000
ASUS43 KDMX 291607
RWRIA

WEATHER ROUNDUP FOR IOWA
NATIONAL WEATHER SERVICE DES MOINES IA
1100 AM CDT MON SEP 29 2014

NOTE: "FAIR" INDICATES FEW OR NO CLOUDS BELOW 12,000 FEET WITH NO
SIGNIFICANT WEATHER AND/OR OBSTRUCTIONS TO VISIBILITY.

* - THESE STATIONS ARE NOT NWS STATIONS...THUS NOT UNDER NWS
QUALITY CONTROL.  THEY ALSO DO NOT REPORT WEATHER SUCH
AS PRECIPITATION OR FOG.

IAZ001>003-012>014-020>022-031>034-043>046-291700-
   NORTHWEST IOWA

CITY           SKY/WX    TMP DP  RH WIND       PRES   REMARKS
CARROLL *      SUNNY     73  61  64 W3        30.07S
CHEROKEE *     CLOUDY    61  61 100 NE5       30.09R
DENISON *      MOSUNNY   73  61  64 SW6       30.05F
LE MARS *      PTSUNNY   63  61  94 NE8       30.09R
ORANGE CITY *  CLOUDY    63  57  82 E7        30.09S
SHELDON *      CLOUDY    59  59 100 NE6       30.09S
SIOUX CITY     MOSUNNY   70  62  76 NE3       30.07S
SPENCER        CLOUDY    62  58  86 NE7       30.10S
STORM LAKE *   SUNNY     63  59  88 NE9       30.09S
$$

IAZ055>058-069>071-079>083-090>094-291700-
   SOUTHWEST IOWA

CITY           SKY/WX    TMP DP  RH WIND       PRES   REMARKS
ATLANTIC *     SUNNY     72  61  68 S6        30.07F
AUDUBON *      MOSUNNY   73  59  60 CALM      30.08F
CLARINDA *     SUNNY     75  59  57 CALM      30.10S
COUNCIL BLFS * SUNNY     73  63  68 S5        30.07S
CRESTON *      PTSUNNY   73  61  64 N5        30.10S
HARLAN  *      SUNNY     75  61  60 S6        30.11S
LAMONI         SUNNY     77  59  53 SW6       30.09F
RED OAK *      MOSUNNY   73  59  60 CALM      30.09S
SHENANDOAH *   MOSUNNY   75  61  60 CALM      30.09S
$$

IAZ047>049-059>061-072>074-084-291700-
   CENTRAL IOWA

CITY           SKY/WX    TMP DP  RH WIND       PRES   REMARKS
AMES           PTSUNNY   75  59  57 SW6       30.06F
ANKENY *       MOSUNNY   73  61  64 SW6       30.06F
CHARITON *     SUNNY     77  61  57 VRB5      30.08S
DES MOINES     MOSUNNY   75  60  59 VRB5      30.06F
GRINNELL*      SUNNY     73  61  64 SW6       30.07F
KNOXVILLE *    SUNNY     75  61  60 VRB7      30.06F
PELLA *        SUNNY     75  63  64 SW5       30.08F
PERRY *        PTSUNNY   73  59  60 SW6       30.06F
$$

IAZ004>006-015-016-023>025-035-036-291700-
   NORTH CENTRAL IOWA

CITY           SKY/WX    TMP DP  RH WIND       PRES   REMARKS
ALGONA *       CLOUDY    63  61  94 N7        30.09R FOG
CLARION *      MOSUNNY   68  61  77 VRB5      30.07S
ESTHERVILLE    CLOUDY    60  59  96 N8        30.09S FOG
FORT DODGE *   PTSUNNY   64  57  77 N5        30.09R
MASON CITY     MOSUNNY   66  60  81 N8        30.08S
FOREST CITY *  CLOUDY    61  61 100 N8        30.08R FOG
IOWA FALLS *   PTSUNNY   72  59  64 NW6       30.07S
$$

IAZ007>011-017>019-026>030-037>042-050>054-066-291700-
   NORTHEAST IOWA

CITY           SKY/WX    TMP DP  RH WIND       PRES   REMARKS
CEDAR RAPIDS   SUNNY     75  61  60 W9        30.06S
CHARLES CITY * SUNNY     72  59  64 W6        30.05F
CLINTON *      SUNNY     75  61  60 CALM      30.07F
DECORAH *      SUNNY     70  59  68 NW3       30.04S
MONTICELLO *   SUNNY     77  59  53 NW5       30.05F
OELWEIN *      SUNNY     73  59  60 W8        30.06F
WATERLOO       SUNNY     74  60  61 VRB6      30.04F
$$

IAZ064-065-067-068-078-291700-
   EAST CENTRAL IOWA

CITY           SKY/WX    TMP DP  RH WIND       PRES   REMARKS
IOWA CITY      SUNNY     76  62  62 VRB3      30.07S
MT. PLEASANT * SUNNY     79  57  47 W6        30.07F HX  80
MUSCATINE *    SUNNY     79  59  50 W6        30.06S HX  80
QUAD CITIES    SUNNY     77  60  55 VRB5      30.05F
$$

IAZ062-063-075>077-085>089-095>099-291700-
   SOUTHEAST IOWA

CITY           SKY/WX    TMP DP  RH WIND       PRES   REMARKS
BURLINGTON     SUNNY     78  62  57 MISG      30.07S HX  80
FAIRFIELD *    SUNNY     77  59  53 W5        30.07F
FORT MADISON * SUNNY     81  59  47 CALM      30.08S HX  81
KEOKUK *       SUNNY     77  61  57 W3        30.07S
OSKALOOSA *      N/A     77  61  57 SW6       30.07F
CENTERVILLE *  SUNNY     79  61  53 SW6       30.10S HX  80
OTTUMWA        SUNNY     75  61  61 W6        30.06S
WASHINGTON *   SUNNY     79  61  53 W6        30.07S HX  80
$$

ABBREVIATIONS USED IN REMARKS
   TC - TEMPERATURES IN CELSIUS
  WCI - WIND CHILL INDEX
   HX - HEAT INDEX
  VSB - VISIBILITY
$$



USA.gov is the U.S. government's official web portal to all federal, state and local government web resources and services.